C/2017 F2 ( PanSTARRS )

Japanese version
Home page
Updated on September 23, 2018

---------------------------------------------------------------------

* Profile

Discovery Date March 31, 2017
Magnitude 21.2 mag
Discoverer Pan-STARRS 1 telescope (Haleakala)

* Pictures

* Orbital Elements

Epoch 2017 Nov. 23.0 TT = JDT 2458080.5
T 2017 Nov. 26.31245 TT                                 MPCW
q   6.9277348            (2000.0)            P               Q
z  -0.0007775      Peri.  134.91186     -0.87743754     -0.22775562
 +/-0.0000037      Node    38.66777     -0.22107970     -0.58904760
e   1.0053865      Incl.   42.50779     +0.42570781     -0.77533883
From 57 observations 2017 Mar. 31-2018 June 7, mean residual 0".5.

* Magnitudes Graph

        m1 = 7.5 + 5 log d + 10.0 log r

---------------------------------------------------------------------

The orbital elements are published on M.P.E.C. 2018-S50.
The magnitudes graphs are made with Comet for Windows.

---------------------------------------------------------------------

Copyright(C) Seiichi Yoshida (comet@aerith.net). All rights reserved.